#timestamp,LO_Frequency,Hit,StdDev 
1692734415.3,286047000.5,N
1692734435.2,286047000.5,N
1692734455.0,286047000.9,N
1692734455.9,286047000.9,N
1692734475.7,286047000.6,N
1692734495.6,286046999.9,N
1692734515.4,286047000.0,N
1692734535.3,286047000.3,N
1692734555.1,286047000.9,N
1692734556.0,286047000.9,N
1692734575.8,286047000.5,N
1692734595.7,286046998.5,N
1692734615.5,286047000.4,N
1692734635.4,286046998.6,N
1692734655.2,286047001.0,N
1692734675.0,286047001.2,N
1692734675.9,286047001.2,N
1692734695.8,286047001.0,N
1692734715.6,286047000.0,N
1692734735.5,286047000.3,N
1692734755.3,286047000.9,N
1692734775.1,286047000.7,N
1692734795.9,286046999.9,N
1692734815.7,286047000.0,N
1692734835.5,286047001.2,N
1692734855.4,286046998.2,N
1692734875.2,286047000.8,N
1692734895.1,286047001.0,N
1692734896.0,286047001.0,N
1692734915.8,286046999.9,N
1692734935.7,286046999.9,N
1692734955.5,286047000.1,N
1692734975.3,286047000.0,N
1692734995.0,286047000.5,N
1692734995.9,286047000.5,N
1692735015.7,286047000.7,N
1692735035.6,286047000.7,N
1692735055.4,286046999.8,N
1692735075.3,286047000.0,N
1692735095.1,286047000.0,N
1692735096.0,286047000.0,N
1692735115.8,286046999.8,N
1692735135.7,286047000.0,N
1692735155.5,286046999.9,N
1692735175.3,286047000.4,N
1692735195.2,286047000.6,N
1692735215.0,286047000.3,N
1692735215.9,286047000.3,N
1692735235.8,286047000.5,N
1692735255.6,286047000.1,N
1692735275.4,286047000.2,N
1692735295.3,286047000.2,N
1692735315.1,286047000.5,N
1692735335.8,286047001.2,N
1692735355.7,286047000.9,N
1692735375.5,286046999.9,N
1692735395.4,286047001.1,N
1692735415.2,286047000.3,N
1692735435.0,286047000.3,N
1692735435.9,286047000.3,N
1692735455.8,286047000.5,N
1692735475.6,286047000.8,N
1692735495.5,286047000.4,N
1692735515.3,286047000.0,N
1692735535.1,286047000.4,N
1692735555.9,286047001.0,N
1692735575.7,286047000.6,N
1692735595.5,286047001.1,N
1692735615.4,286047000.0,N
1692735635.2,286047002.8,Y
1692735655.1,286047000.8,P
1692735656.0,286047000.8,P
1692735675.8,286047000.5,N
1692735695.6,286047001.0,Y
1692735715.5,286046998.9,P
1692735735.3,286046998.4,N
1692735755.2,286046998.9,N
1692735775.9,286046998.7,N
1692735795.7,286046998.5,N
1692735815.6,286047000.6,N
1692735835.4,286047000.8,N
1692735855.3,286047000.7,N
1692735875.1,286047000.2,N
1692735876.0,286047000.2,N
1692735895.8,286047001.0,N
1692735915.7,286047000.7,N
1692735935.5,286047000.5,N
1692735955.3,286046998.1,N
1692735975.2,286046998.1,N
1692735995.0,286046998.5,N
1692735995.9,286046998.5,N
1692736015.8,286046998.2,N
1692736035.6,286047001.0,N
1692736055.4,286047000.9,N
1692736075.3,286046999.3,N
1692736095.1,286046998.9,N
1692736115.9,286046999.0,N
1692736135.7,286046998.3,N
1692736155.5,286046998.5,N
1692736175.4,286046998.9,N
1692736195.2,286046999.6,N
1692736215.0,286046999.0,N
1692736215.9,286046999.0,N
1692736235.8,286046996.5,Y
1692736255.6,286046999.1,P
1692736275.5,286046997.0,P
1692736295.3,286046999.3,N
1692736315.1,286046999.6,N
1692736335.9,286046999.6,N
1692736355.7,286046996.8,Y
1692736375.5,286046996.9,P
1692736395.4,286046999.4,N
1692736415.2,286046999.1,N
1692736435.1,286046996.6,Y
1692736436.0,286046996.6,P
1692736455.8,286046998.3,N
1692736475.6,286047001.2,N
1692736495.5,286046999.6,N
1692736515.3,286046996.8,N
1692736535.2,286046997.0,N
1692736555.9,286046997.1,N
1692736575.7,286046997.3,N
1692736595.6,286046997.2,N
1692736615.4,286046995.4,Y
1692736635.2,286046997.0,P
1692736655.1,286046996.8,P
1692736656.0,286046996.8,P
1692736675.8,286046996.5,Y
1692736695.7,286047000.4,P
1692736715.5,286046999.8,N
1692736735.3,286047000.5,N
1692736755.2,286046999.7,N
1692736775.0,286047000.6,N
1692736775.9,286047000.6,N
1692736795.7,286047001.0,N
1692736815.6,286047000.6,N
1692736835.4,286047000.0,N
1692736855.3,286047002.3,N
1692736875.1,286047002.8,N
1692736876.0,286047002.8,N
1692736895.8,286047000.5,N
1692736915.7,286046999.9,N
1692736935.5,286047000.0,N
1692736955.3,286046999.9,N
1692736975.2,286047000.4,N
1692736995.0,286047000.8,N
1692736995.9,286047000.8,N
1692737015.8,286047000.3,N
1692737035.6,286047000.6,N
1692737055.4,286047000.3,N
1692737075.3,286047000.4,N
1692737095.1,286047000.0,N
1692737115.8,286047000.5,N
1692737135.7,286047000.3,N
1692737155.5,286047000.3,N
1692737175.4,286047001.0,N
1692737195.2,286047001.2,N
1692737215.0,286046998.5,N
1692737215.9,286046998.5,N
1692737235.8,286046998.5,N
1692737255.6,286047001.2,N
1692737275.5,286046998.7,N
1692737295.3,286046998.2,N
1692737315.1,286046998.5,N
1692737335.9,286046996.5,Y
1692737355.7,286046996.7,P
1692737375.5,286046999.5,N
1692737395.4,286046998.9,N
1692737415.2,286046998.4,N
1692737435.1,286046998.9,N
1692737436.0,286046998.9,N
1692737455.8,286046999.4,N
1692737475.7,286046999.5,N
1692737495.5,286046996.6,Y
1692737515.3,286046998.2,P
1692737535.2,286046999.4,N
1692737555.0,286046996.6,P
1692737555.9,286046996.6,Y
1692737575.8,286047000.6,P
1692737595.6,286047001.2,N
1692737615.5,286047001.0,N
1692737635.3,286047000.7,N
1692737655.1,286047000.1,N
1692737675.9,286047000.3,N
1692737695.7,286046999.7,N
1692737715.5,286046999.9,N
1692737735.4,286047000.3,N
1692737755.2,286047000.0,N
1692737775.1,286046999.9,N
1692737776.0,286046999.9,N
1692737795.8,286047002.6,Y
1692737815.6,286046999.7,P
1692737835.5,286047002.5,P
1692737855.3,286047002.8,N
1692737875.2,286047002.7,N
1692737895.9,286047002.7,N
1692737915.7,286046999.7,N
1692737935.6,286047002.7,N
1692737955.4,286047000.0,N
1692737975.2,286047000.7,N
1692737995.1,286047000.8,N
1692737996.0,286047000.8,N
